[[{"header":{"parameterUnit":"m.s-1","parameterCategory":1,"la1":30.2991,"la2":30.254,"lo1":-89.0895,"lo2":-89.0444,"dy":0.0017,"dx":0.0017,"nx":28,"ny":28,"refTime":"2023-11-03T21:00:00:Z","depth":0,"parameterNumber":2,"parameterNumberName":"U-component_of_WINDS"},"data":[0,0,0,0,0,0,0,0,0,0,0,0,0,0,0,0,0,0,0,0,0,0,0,0,0,0,0,0,0,0,0,0,0,0,0,0,0,0,0,0,0,0,0,0,0,0,0,0,0,0,0,0,0,0,0,0,0,0,-0.7852,-0.7852,0,-0.7924,-0.7925,-0.7926,-0.7894,-0.7892,-0.789,-0.7888,-0.7964,-0.7967,-0.7971,0,0,0,0,0,0,0,0,0,0,0,0,0,-0.7687,-0.769,-0.7852,-0.7853,-0.7853,-0.7924,-0.7925,-0.7926,-0.7894,-0.7892,-0.7889,-0.7887,-0.7963,-0.7967,-0.7971,0,0,0,0,0,0,0,0,0,0,0,0,0,-0.7759,-0.7691,-0.7851,-0.7846,-0.7846,-0.7924,-0.7925,-0.7926,-0.7894,-0.7892,-0.7889,-0.7886,-0.7961,-0.7967,-0.7972,-0.806,0,0,-0.7989,-0.7991,0,0,0,0,0,0,0,0,-0.7755,-0.7765,-0.7846,-0.7846,-0.7847,-0.7897,-0.7894,-0.7971,-0.7895,-0.7876,-0.7888,-0.7885,-0.7944,-0.7951,-0.797,-0.8063,-0.8066,-0.7989,-0.7993,-0.7995,-0.7997,0,0,0,0,0,0,0,-0.775,-0.7761,-0.788,-0.7847,-0.7848,-0.784,-0.7847,-0.7909,-0.7924,-0.7877,-0.7875,-0.7884,-0.7944,-0.7965,-0.7972,-0.8068,-0.7989,-0.7994,-0.7998,-0.8,-0.8236,-0.8239,0,0,0,0,0,0,-0.7744,-0.7757,-0.7878,-0.7882,-0.7793,-0.7845,-0.7853,-0.7884,-0.7923,-0.7927,-0.7886,-0.7882,-0.7957,-0.7965,-0.7974,-0.8079,-0.7995,-0.8,-0.8003,-0.8233,-0.8236,-0.824,0,0,0,0,0,0,-0.7741,-0.7756,-0.7875,-0.7819,-0.7834,-0.7851,-0.7885,-0.7886,-0.7908,-0.793,-0.7933,-0.7905,-0.7955,-0.7966,-0.8038,-0.8082,-0.8003,-0.8008,-0.8229,-0.8234,-0.8238,-0.8291,0,0,0,0,0,0,-0.7736,-0.7755,-0.7788,-0.782,-0.7837,-0.7938,-0.7888,-0.789,-0.7917,-0.7913,-0.7949,-0.7952,-0.7954,-0.803,-0.8044,-0.8088,-0.8012,-0.8226,-0.8231,-0.8237,-0.8285,-0.8296,-0.8306,0,0,0,0,0,-0.7731,-0.78,-0.779,-0.7805,-0.7879,-0.7941,-0.795,-0.795,-0.7921,-0.7954,-0.7969,-0.7951,-0.8074,-0.8038,-0.8053,-0.8099,-0.8223,-0.823,-0.8236,-0.828,-0.8294,-0.8306,0,0,0,0,0,0,-0.7773,-0.7804,-0.7793,-0.7875,-0.7905,-0.7935,-0.7978,-0.7965,-0.8005,-0.7999,-0.7998,-0.8006,-0.8081,-0.8097,-0.8056,-0.8186,-0.8144,-0.8154,-0.8173,-0.8186,-0.8196,-0.8191,-0.8017,0,0,0,0,0,-0.7792,-0.7839,-0.7864,-0.7934,-0.7949,-0.7961,-0.7988,-0.7985,-0.8017,-0.803,-0.8049,-0.8081,-0.8127,-0.8157,-0.82,-0.8287,-0.8294,-0.8326,-0.8336,-0.8345,-0.8354,-0.84,-0.8415,-0.8262,-0.8261,-0.8261,0,0,-0.7832,-0.7854,-0.7884,-0.7943,-0.7966,-0.8015,-0.7972,-0.8026,-0.8062,-0.8038,-0.8107,-0.8122,-0.8157,-0.8237,-0.8273,-0.8253,-0.8397,-0.8353,-0.836,-0.8364,-0.8409,-0.8423,-0.8436,-0.8266,-0.8265,-0.8264,0,0,-0.7929,-0.7951,-0.8011,-0.8035,-0.807,-0.8077,-0.8092,-0.8123,-0.8133,-0.8202,-0.8184,-0.8228,-0.8307,-0.8332,-0.8356,-0.8462,-0.8447,-0.8476,-0.853,-0.8576,-0.8588,-0.8598,-0.8636,-0.865,-0.8484,-0.8484,-0.8485,0,-0.7974,-0.8046,-0.8044,-0.8099,-0.8125,-0.8105,-0.8166,-0.819,-0.8238,-0.8256,-0.8233,-0.8331,-0.8353,-0.8438,-0.8464,-0.8484,-0.85,-0.8472,-0.8586,-0.8597,-0.8607,-0.8643,-0.8657,-0.8488,-0.8487,-0.8487,-0.8487,0,-0.81,-0.8151,-0.8195,-0.8241,-0.8273,-0.8331,-0.8337,-0.8369,-0.8364,-0.8373,-0.8444,-0.847,-0.8518,-0.8537,-0.8533,-0.8622,-0.8608,-0.8586,-0.8544,-0.8625,-0.8659,-0.8672,-0.8493,-0.8491,-0.849,-0.849,0,0,-0.8227,-0.827,-0.8287,-0.8307,-0.8344,-0.8384,-0.844,-0.8487,-0.8514,-0.8548,-0.8596,-0.8662,-0.8641,-0.8668,-0.8666,-0.8706,-0.8788,-0.8678,-0.8679,-0.8698,-0.8887,-0.8905,-0.8921,-0.8778,-0.878,-0.8782,-0.8884,0,-0.8327,-0.8426,-0.8426,-0.8518,-0.8564,-0.8545,-0.8594,-0.8623,-0.8633,-0.8674,-0.8685,-0.8733,-0.8701,-0.8717,-0.8756,-0.877,-0.8826,-0.8762,-0.8822,-0.8825,-0.8815,-0.8938,-0.8957,-0.9052,-0.8898,-0.89,-0.8902,0,-0.8457,-0.8494,-0.8591,-0.862,-0.864,-0.8685,-0.8727,-0.8766,-0.8798,-0.8802,-0.8832,-0.8823,-0.8881,-0.8837,-0.8917,-0.8873,-0.8898,-0.8908,-0.8912,-0.8918,-0.8868,-0.8948,-0.9082,-0.9097,-0.8922,-0.8921,-0.8919,0,-0.854,-0.8614,-0.8682,-0.87,-0.8736,-0.8768,-0.8784,-0.8813,-0.8841,-0.8878,-0.8896,-0.8939,-0.8963,-0.8997,-0.9,-0.8968,-0.908,-0.9036,-0.9086,-0.9086,-0.9111,-0.911,-0.9252,-0.9126,-0.9126,-0.9126,-0.9126,0,-0.8652,-0.8712,-0.8719,-0.8761,-0.8827,-0.8826,-0.8892,-0.8905,-0.8931,-0.8975,-0.896,-0.9002,-0.9004,-0.9046,-0.9049,-0.9115,-0.9126,-0.9131,-0.9131,-0.9133,-0.9132,-0.9149,-0.9142,-0.913,-0.9129,-0.9128,-0.9127,0,-0.8757,-0.8764,-0.8836,-0.8864,-0.8872,-0.892,-0.8944,-0.8984,-0.8992,-0.9048,-0.9061,-0.9074,-0.9123,-0.913,-0.9187,-0.9189,-0.9268,-0.9261,-0.9258,-0.9257,-0.9306,-0.9301,-0.9464,-0.9485,-0.9346,-0.9347,-0.9348,0,-0.8828,-0.8874,-0.8906,-0.8934,-0.8952,-0.8998,-0.9026,-0.9026,-0.9056,-0.9095,-0.913,-0.9177,-0.9215,-0.9295,-0.931,-0.9353,-0.9348,-0.9402,-0.9354,-0.9354,-0.9349,-0.9346,-0.935,-0.9411,-0.9413,-0.9414,-0.9415,0,-0.8954,-0.8955,-0.8996,-0.9038,-0.9072,-0.9105,-0.9136,-0.916,-0.9164,-0.9198,-0.9248,-0.9277,-0.9336,-0.9383,-0.9426,-0.9443,-0.943,-0.9429,-0.9443,-0.9445,-0.9441,-0.9444,-0.9283,-0.9426,-0.9425,-0.9424,-0.9423,-0.9423,-0.9044,-0.9083,-0.9112,-0.9158,-0.9181,-0.9211,-0.9249,-0.9262,-0.9303,-0.9351,-0.9348,-0.9403,-0.9433,-0.9489,-0.9509,-0.9552,-0.9534,-0.9554,-0.9559,-0.9564,-0.9569,-0.9434,-0.956,-0.9559,-0.9559,-0.9559,-0.9559,0,-0.9169,-0.9186,-0.9228,-0.9272,-0.9308,-0.9292,-0.9325,-0.9357,-0.9405,-0.9434,-0.9471,-0.9528,-0.9574,-0.9592,-0.9637,-0.9667,-0.9662,-0.9679,-0.9677,-0.9681,-0.9582,-0.9566,-0.9682,-0.9682,-0.9682,-0.9682,-0.9682,-0.9682,-0.9238,-0.9304,-0.9308,-0.9385,-0.9402,-0.9456,-0.9476,-0.9503,-0.9526,-0.959,-0.9628,-0.9639,-0.9663,-0.971,-0.9751,-0.9755,-0.9772,-0.9791,-0.9793,-0.9701,-0.9688,-0.9676,-0.9661,-0.9795,-0.9795,-0.9888,-0.9889,-0.989]},{"header":{"parameterUnit":"m.s-1","parameterCategory":1,"la1":30.2991,"la2":30.254,"lo1":-89.0895,"lo2":-89.0444,"dy":0.0017,"dx":0.0017,"nx":28,"ny":28,"refTime":"2023-11-03T21:00:00:Z","depth":0,"parameterNumber":3,"parameterNumberName":"V-component_of_WINDS"},"data":[0,0,0,0,0,0,0,0,0,0,0,0,0,0,0,0,0,0,0,0,0,0,0,0,0,0,0,0,0,0,0,0,0,0,0,0,0,0,0,0,0,0,0,0,0,0,0,0,0,0,0,0,0,0,0,0,0,0,-3.3556,-3.3557,0,-3.3618,-3.3619,-3.362,-3.3581,-3.3579,-3.3577,-3.3576,-3.3635,-3.3638,-3.3641,0,0,0,0,0,0,0,0,0,0,0,0,0,-3.3399,-3.3402,-3.3556,-3.3557,-3.3558,-3.3618,-3.3619,-3.362,-3.3581,-3.3579,-3.3577,-3.3575,-3.3634,-3.3638,-3.3642,0,0,0,0,0,0,0,0,0,0,0,0,0,-3.3465,-3.3403,-3.3556,-3.3546,-3.3546,-3.3618,-3.3619,-3.362,-3.3582,-3.3579,-3.3576,-3.3574,-3.3633,-3.3637,-3.3642,-3.3727,0,0,-3.3657,-3.3659,0,0,0,0,0,0,0,0,-3.3461,-3.3471,-3.3547,-3.3547,-3.3546,-3.3589,-3.3585,-3.3656,-3.3582,-3.3568,-3.3576,-3.3572,-3.3622,-3.3627,-3.3645,-3.373,-3.3732,-3.3658,-3.3661,-3.3663,-3.3664,0,0,0,0,0,0,0,-3.3457,-3.3468,-3.3581,-3.3548,-3.3548,-3.3537,-3.3543,-3.3599,-3.3609,-3.3569,-3.3566,-3.3574,-3.3621,-3.364,-3.3646,-3.3733,-3.3657,-3.3662,-3.3665,-3.3667,-3.389,-3.3893,0,0,0,0,0,0,-3.3453,-3.3464,-3.3579,-3.3582,-3.3496,-3.3542,-3.3549,-3.3578,-3.3608,-3.361,-3.3577,-3.3572,-3.3633,-3.364,-3.3648,-3.3749,-3.3663,-3.3667,-3.367,-3.3887,-3.3891,-3.3894,0,0,0,0,0,0,-3.345,-3.3464,-3.3576,-3.3523,-3.3536,-3.3547,-3.3581,-3.3581,-3.36,-3.3614,-3.3615,-3.3595,-3.3631,-3.3641,-3.3708,-3.375,-3.3669,-3.3674,-3.3883,-3.3888,-3.3892,-3.3951,0,0,0,0,0,0,-3.3446,-3.3463,-3.3497,-3.3524,-3.3539,-3.3637,-3.3583,-3.3584,-3.3609,-3.3604,-3.3631,-3.3633,-3.363,-3.3701,-3.3713,-3.3755,-3.3678,-3.388,-3.3885,-3.3891,-3.3946,-3.3957,-3.3967,0,0,0,0,0,-3.344,-3.351,-3.3499,-3.3513,-3.3581,-3.3639,-3.3648,-3.3644,-3.3613,-3.3646,-3.3655,-3.3632,-3.3744,-3.3708,-3.3721,-3.3766,-3.3877,-3.3884,-3.389,-3.3941,-3.3955,-3.3967,0,0,0,0,0,0,-3.3486,-3.3513,-3.3501,-3.3582,-3.3609,-3.3633,-3.3674,-3.3659,-3.3694,-3.3688,-3.3679,-3.3686,-3.3756,-3.3767,-3.3727,-3.3849,-3.3805,-3.3815,-3.3839,-3.3853,-3.3863,-3.3859,-3.3682,0,0,0,0,0,-3.3506,-3.3552,-3.3572,-3.3642,-3.3656,-3.3663,-3.3688,-3.3682,-3.3709,-3.372,-3.3734,-3.376,-3.38,-3.3827,-3.3865,-3.3947,-3.3952,-3.3985,-3.3995,-3.4004,-3.4012,-3.4056,-3.407,-3.3916,-3.3916,-3.3916,0,0,-3.3546,-3.3567,-3.3596,-3.3651,-3.3671,-3.3718,-3.3673,-3.3724,-3.3758,-3.3727,-3.3792,-3.3803,-3.3831,-3.3905,-3.3939,-3.3917,-3.4056,-3.4013,-3.402,-3.4023,-3.4064,-3.4079,-3.4092,-3.392,-3.392,-3.3919,0,0,-3.3644,-3.3665,-3.3724,-3.3746,-3.3778,-3.3782,-3.3796,-3.3823,-3.3829,-3.3894,-3.3872,-3.3912,-3.3982,-3.4003,-3.4023,-3.4128,-3.4109,-3.4141,-3.4197,-3.424,-3.4252,-3.4262,-3.43,-3.4313,-3.4149,-3.4149,-3.4149,0,-3.369,-3.3761,-3.3756,-3.381,-3.3834,-3.381,-3.387,-3.389,-3.3932,-3.3949,-3.3924,-3.4012,-3.4029,-3.4108,-3.4134,-3.4151,-3.4166,-3.4137,-3.4251,-3.4261,-3.4271,-3.4306,-3.4321,-3.4153,-3.4153,-3.4152,-3.4152,0,-3.3815,-3.3864,-3.3908,-3.3952,-3.3981,-3.4037,-3.404,-3.407,-3.4062,-3.4068,-3.4134,-3.4154,-3.4195,-3.4214,-3.4206,-3.4291,-3.4277,-3.4252,-3.4207,-3.429,-3.4323,-3.4336,-3.4158,-3.4157,-3.4156,-3.4155,0,0,-3.3943,-3.3983,-3.3999,-3.4018,-3.4052,-3.4089,-3.4143,-3.4186,-3.4211,-3.4241,-3.4285,-3.4346,-3.4323,-3.4345,-3.4339,-3.4377,-3.4458,-3.4347,-3.4347,-3.4366,-3.4553,-3.4571,-3.4587,-3.4446,-3.4448,-3.445,-3.455,0,-3.4042,-3.4139,-3.4137,-3.4226,-3.4271,-3.4249,-3.4296,-3.4321,-3.4328,-3.4366,-3.4373,-3.4416,-3.4383,-3.4396,-3.4432,-3.4441,-3.4496,-3.4434,-3.4486,-3.4488,-3.4479,-3.4605,-3.4624,-3.4718,-3.4563,-3.4566,-3.4567,0,-3.4171,-3.4207,-3.4301,-3.4328,-3.4346,-3.4389,-3.4427,-3.4464,-3.4491,-3.4494,-3.4519,-3.4508,-3.4561,-3.4516,-3.4589,-3.4547,-3.4568,-3.4575,-3.4579,-3.4583,-3.4532,-3.4612,-3.4747,-3.4761,-3.4587,-3.4586,-3.4584,0,-3.4254,-3.4325,-3.4391,-3.4408,-3.4441,-3.4471,-3.4486,-3.4511,-3.4536,-3.4569,-3.4585,-3.4623,-3.4644,-3.4673,-3.4672,-3.4639,-3.4746,-3.47,-3.4748,-3.4748,-3.4771,-3.4769,-3.4912,-3.4786,-3.4786,-3.4785,-3.4785,0,-3.4365,-3.4423,-3.4429,-3.4469,-3.4533,-3.453,-3.4593,-3.4604,-3.4626,-3.4667,-3.465,-3.4688,-3.4684,-3.4723,-3.4721,-3.4782,-3.4791,-3.4794,-3.4793,-3.4795,-3.4795,-3.4808,-3.4802,-3.4789,-3.4788,-3.4787,-3.4787,0,-3.4468,-3.4475,-3.4545,-3.457,-3.4578,-3.4624,-3.4645,-3.4683,-3.4689,-3.4741,-3.4753,-3.4762,-3.4806,-3.4807,-3.4857,-3.4857,-3.493,-3.4922,-3.4921,-3.492,-3.4967,-3.4963,-3.5123,-3.5143,-3.5004,-3.5006,-3.5007,0,-3.4539,-3.4583,-3.4614,-3.4641,-3.4658,-3.4702,-3.4728,-3.4726,-3.4754,-3.4788,-3.4821,-3.4864,-3.4898,-3.4969,-3.4979,-3.5017,-3.501,-3.5063,-3.5015,-3.5016,-3.501,-3.5007,-3.5011,-3.5072,-3.5074,-3.5075,-3.5076,0,-3.4662,-3.4663,-3.4703,-3.4744,-3.4776,-3.4807,-3.4836,-3.4859,-3.486,-3.4892,-3.4938,-3.4964,-3.5016,-3.5059,-3.5096,-3.5109,-3.5092,-3.5091,-3.5104,-3.5107,-3.5105,-3.5106,-3.4946,-3.5087,-3.5086,-3.5085,-3.5085,-3.5084,-3.4751,-3.4789,-3.4817,-3.4862,-3.4884,-3.4912,-3.4948,-3.4959,-3.4998,-3.5041,-3.5037,-3.5088,-3.5112,-3.5161,-3.5177,-3.5216,-3.5197,-3.5216,-3.5221,-3.5226,-3.523,-3.5099,-3.5223,-3.5222,-3.5222,-3.5222,-3.5222,0,-3.4873,-3.489,-3.4931,-3.4974,-3.5008,-3.4991,-3.5023,-3.5052,-3.5098,-3.5123,-3.5157,-3.521,-3.5251,-3.5264,-3.5303,-3.5332,-3.5325,-3.5342,-3.5339,-3.5343,-3.5245,-3.523,-3.5347,-3.5347,-3.5347,-3.5347,-3.5347,-3.5347,-3.4941,-3.5005,-3.501,-3.5084,-3.51,-3.5151,-3.517,-3.5195,-3.5216,-3.5275,-3.531,-3.5319,-3.5339,-3.538,-3.5416,-3.5419,-3.5434,-3.5454,-3.5454,-3.5362,-3.535,-3.5338,-3.5323,-3.5458,-3.5458,-3.5548,-3.5549,-3.5549]}]]